Theta_e
327 323 326 327 327 327 322 317 303 309 307 300 299 302 300 307 307 308 308 309 308 313 315 317 321 319 316 315 317 319 318 316 317 311 311 325 336 337 339 339 340 340 339 339 341 342 346 347 347 348 347 346 346 346 346 346 346 345 342 341 342 341 342 342 342 342 342 342 340 338 341 341 341 341 341 341 341 341 341 340 341 341 341 340 341 342 342 343 343 343 344 344 343 343 344 343 342
324 327 328 327 323 319 314 312 306 302 303 299 300 301 303 305 306 308 308 310 313 314 317 320 322 321 321 321 322 321 319 323 321 323 328 333 336 337 339 340 340 338 339 340 341 341 345 348 347 347 348 347 345 346 345 346 346 345 343 343 343 340 338 338 343 343 341 340 342 342 341 340 338 339 342 341 340 339 339 343 342 341 342 344 346 346 346 345 344 344 344 343 343 343 342 342 341
324 327 323 322 320 316 314 312 301 300 298 295 299 301 304 304 306 310 310 311 317 318 319 321 321 320 318 318 316 316 317 325 325 327 329 335 330 333 339 341 341 339 339 340 340 341 345 346 346 347 347 346 346 346 346 345 345 344 343 343 342 341 338 337 341 341 341 341 341 342 342 342 341 341 341 339 340 341 342 341 341 342 342 342 342 342 343 343 343 343 343 343 343 342 342 341 341
326 325 325 321 315 317 308 307 304 300 298 297 298 302 304 306 308 311 312 318 318 319 319 317 317 322 319 315 317 320 321 322 328 330 327 330 332 336 339 340 341 339 340 341 340 343 345 346 345 346 346 346 346 346 346 345 345 343 341 340 339 342 342 342 341 339 339 340 341 340 341 341 341 341 341 338 337 339 341 342 342 341 342 345 345 345 345 344 343 342 342 342 343 341 340 340 340
325 322 324 319 314 307 309 305 303 302 297 299 298 302 303 307 309 310 316 319 316 314 318 319 319 323 324 321 320 317 322 327 327 333 330 334 339 339 340 341 339 337 338 339 339 343 346 343 345 345 346 346 346 346 345 344 343 342 341 341 341 340 342 342 339 337 338 340 339 340 339 336 335 336 338 338 338 338 339 340 341 340 340 341 342 343 343 344 343 343 343 342 342 342 341 341 340
323 322 323 320 309 314 308 303 301 300 302 303 300 302 303 307 309 313 315 317 316 316 313 319 318 319 319 322 324 321 328 321 330 331 332 334 339 340 339 342 336 336 337 338 340 343 346 341 344 345 346 346 346 345 344 343 342 341 341 341 339 339 343 342 340 339 340 341 341 337 339 340 340 341 341 340 340 340 340 340 340 340 340 340 340 341 341 342 342 341 341 341 341 341 340 339 338
321 317 318 315 312 314 303 301 300 301 303 303 302 303 304 306 311 315 314 313 314 313 311 317 320 321 316 323 324 328 332 330 330 331 336 339 341 340 340 339 336 335 337 338 342 344 346 342 345 346 346 346 346 344 342 342 342 341 341 340 339 336 336 339 339 338 340 341 340 339 339 340 341 340 340 340 340 340 339 339 339 341 341 341 342 343 343 343 342 341 341 341 340 340 339 338 337
321 315 314 307 305 307 301 302 302 303 301 302 302 302 304 307 312 315 313 312 310 310 313 319 321 318 318 323 319 327 330 331 334 337 339 339 340 339 340 338 335 335 337 340 343 345 345 341 344 345 345 346 346 344 342 341 341 341 340 340 340 337 336 341 341 341 340 338 337 339 339 340 340 340 340 339 338 338 337 337 339 338 339 341 341 341 341 340 341 340 339 339 339 339 338 337 336
318 315 314 310 303 304 300 300 302 302 302 302 303 303 304 307 314 315 313 311 309 313 315 318 318 312 317 319 321 326 329 334 336 336 338 338 337 338 338 336 333 335 337 340 343 344 346 340 343 345 344 345 346 344 342 341 341 341 340 339 340 339 338 341 341 341 339 337 335 335 337 338 338 338 338 338 338 337 336 337 338 338 340 341 341 340 339 339 340 339 339 338 338 338 337 337 336
315 313 308 307 306 299 298 299 300 302 302 303 303 304 305 308 313 315 313 308 310 316 318 318 316 311 320 318 321 326 328 335 336 336 338 337 337 337 337 336 336 336 338 340 342 343 344 343 339 341 343 345 345 345 343 341 341 340 340 339 338 338 342 342 342 342 339 338 335 335 335 336 336 336 336 337 337 337 338 338 338 340 340 340 339 339 338 338 338 338 337 337 337 338 337 336 336
309 311 311 305 302 298 297 298 300 303 302 303 304 304 308 311 313 311 310 309 312 316 316 318 314 315 320 319 324 329 333 335 334 332 336 337 337 337 336 335 337 337 336 340 342 342 342 345 341 339 341 341 343 344 343 341 340 340 339 339 338 342 342 341 340 341 340 338 337 336 336 336 336 337 338 338 338 338 337 337 337 337 338 339 339 339 338 338 338 337 337 337 337 338 337 337 336
307 308 309 303 301 300 298 298 300 302 303 304 305 306 308 311 310 308 308 306 311 314 315 317 315 322 318 319 322 328 332 333 334 335 336 337 336 337 336 334 335 335 338 339 341 341 342 343 345 342 336 337 340 341 342 341 341 340 340 338 337 341 341 339 340 340 340 338 336 336 336 335 337 337 338 337 337 337 336 336 337 337 337 337 337 337 338 337 337 336 336 337 337 337 337 337 336
310 309 306 303 300 301 300 298 300 301 303 304 306 306 310 309 309 309 309 311 313 313 312 318 322 322 314 319 325 328 328 332 334 336 336 336 336 336 336 334 334 336 337 339 339 341 343 341 342 344 340 332 333 334 337 338 340 341 340 341 343 342 343 341 341 341 340 338 337 338 340 340 340 339 339 338 338 339 337 336 336 336 336 337 337 337 338 337 336 336 336 336 335 335 336 336 335
311 310 306 302 300 301 299 300 301 300 302 305 306 306 309 309 309 309 310 308 311 311 312 318 322 320 318 320 321 324 328 333 335 336 337 336 336 335 334 334 334 334 338 338 338 340 341 341 341 343 344 344 344 337 332 336 338 340 340 341 342 343 343 343 342 341 340 340 339 340 340 340 339 338 337 337 337 337 335 337 337 335 335 335 337 336 337 336 336 335 335 335 334 334 334 333 333
311 310 307 304 301 300 301 298 300 300 301 305 303 306 306 306 305 307 310 308 311 310 317 320 324 315 311 316 319 325 329 333 335 336 336 335 334 334 333 333 333 333 335 335 337 337 337 339 338 341 342 343 343 342 341 342 332 336 338 339 339 340 340 340 340 338 338 339 338 337 336 334 333 333 334 335 335 336 334 332 336 336 335 335 336 335 336 335 334 333 333 333 333 332 333 332 332
311 310 306 303 300 300 301 300 298 301 301 304 302 302 307 304 304 307 309 308 312 314 316 316 319 313 313 318 319 329 332 334 335 336 334 333 333 332 330 330 331 331 332 333 333 336 337 336 338 338 340 341 342 342 341 342 333 331 335 336 336 336 336 336 335 334 332 332 332 332 330 334 331 333 327 333 330 333 331 332 332 335 335 335 334 335 335 335 335 333 333 332 332 331 330 329 329
309 311 302 302 299 300 301 301 301 299 302 304 302 304 306 305 304 305 308 310 309 312 315 318 319 320 317 319 322 325 334 335 333 334 332 330 329 328 328 328 329 329 330 331 332 332 336 335 334 335 337 339 340 340 340 341 338 330 331 329 331 332 333 332 330 325 324 324 327 324 329 335 336 336 335 334 328 336 323 327 332 335 335 335 334 334 335 334 334 334 333 332 330 327 325 324 324
311 304 303 300 302 300 302 301 301 301 301 302 302 304 306 304 304 307 312 311 314 315 314 318 318 319 323 324 326 330 334 333 332 330 329 328 328 326 325 325 326 326 327 329 330 332 332 334 334 333 334 337 339 339 340 340 340 336 340 340 340 335 329 327 334 339 337 339 325 334 336 334 334 335 335 335 335 336 332 324 330 334 335 334 335 334 334 334 333 332 331 331 329 327 322 333 330
305 303 302 301 302 302 303 302 302 301 301 301 301 302 304 306 306 308 306 307 309 309 312 316 318 320 323 324 327 331 332 332 331 330 328 327 327 325 325 326 325 326 326 327 328 330 332 333 334 333 333 335 338 338 338 339 338 338 337 337 338 332 336 338 337 337 337 337 337 336 333 334 335 336 335 335 335 320 326 323 327 328 329 329 331 330 331 331 331 330 327 327 326 324 335 332 332
305 303 300 301 304 302 303 302 301 302 301 302 302 302 302 305 305 310 305 307 309 306 308 312 314 317 321 324 327 330 330 330 330 329 328 328 328 327 327 325 325 326 326 327 328 330 331 332 334 334 333 335 336 337 337 336 337 337 336 336 336 336 337 337 336 336 336 336 336 335 333 336 336 335 327 327 330 335 331 320 320 322 323 324 325 330 327 325 324 323 322 322 328 329 332 330 330
304 303 302 302 302 301 301 302 302 300 300 301 301 300 301 304 305 308 306 305 306 307 310 310 311 316 321 324 326 329 329 329 329 329 329 328 328 329 330 327 325 326 328 328 329 328 329 331 332 334 334 335 335 336 334 335 336 336 336 335 335 336 336 336 334 335 336 336 336 334 335 335 334 333 335 334 334 333 333 334 333 334 333 333 325 332 332 333 330 333 332 330 331 332 331 331 330
302 302 302 302 301 300 302 301 300 300 299 301 300 300 302 304 303 305 306 303 304 308 311 313 312 317 323 323 325 328 328 328 328 328 328 328 328 328 330 330 328 328 329 326 327 328 330 330 330 332 333 334 334 334 333 333 335 334 335 335 334 335 336 335 334 334 334 335 334 334 334 334 334 332 333 332 332 332 331 332 331 331 332 332 330 331 331 331 331 331 331 330 330 331 331 330 329
304 301 300 301 302 300 300 300 298 298 300 301 301 302 302 302 303 305 307 306 306 305 306 311 315 320 325 326 327 326 327 327 328 328 329 328 329 329 329 331 329 326 327 327 328 328 329 329 330 331 331 333 334 334 331 331 332 334 334 334 334 333 334 334 333 333 333 334 334 334 332 332 332 332 332 331 331 331 331 330 331 331 331 330 330 330 331 331 330 330 329 330 330 330 330 329 329
303 304 299 299 300 300 300 300 297 298 298 300 301 301 301 301 300 303 304 308 306 307 311 306 310 322 326 324 326 327 327 328 328 329 330 329 330 330 331 331 331 330 328 328 328 328 329 329 330 330 330 330 332 333 332 330 331 331 332 332 332 331 332 333 333 333 335 333 333 332 331 332 330 329 331 331 332 332 330 330 330 330 330 329 330 330 330 330 330 330 330 330 329 329 328 330 330
303 303 300 299 298 300 300 299 298 297 298 299 299 300 301 302 302 299 302 306 309 309 313 310 316 321 323 325 325 327 327 328 328 329 330 331 331 331 332 333 333 333 330 329 329 328 329 330 330 329 330 330 330 331 330 330 331 330 331 331 330 330 331 332 333 334 333 332 333 334 332 331 330 330 331 331 331 332 331 330 330 330 330 330 330 329 330 330 330 329 330 330 330 329 329 330 329
306 306 299 298 300 302 299 299 299 298 299 298 299 300 301 300 300 299 303 305 308 314 316 317 320 320 322 324 325 326 327 327 328 328 328 331 331 330 331 332 332 331 332 331 330 329 330 330 330 329 330 330 330 330 330 330 330 330 331 331 331 330 331 331 332 332 332 333 332 333 333 331 330 330 332 333 332 333 332 332 331 330 330 330 330 330 330 330 329 330 330 331 331 330 330 330 329
305 304 303 303 304 300 299 300 300 298 301 299 300 301 300 299 299 301 302 305 306 312 316 319 318 318 321 324 325 326 327 328 327 329 329 330 330 330 330 332 332 332 333 332 332 331 331 330 330 330 330 330 330 329 330 330 330 330 331 331 331 330 330 331 330 330 332 332 332 333 333 333 332 333 333 334 333 333 333 332 331 331 329 330 330 331 331 331 331 330 331 330 331 330 330 330 329
301 300 300 300 300 300 299 297 299 300 302 299 301 300 299 299 299 301 302 304 308 310 315 317 317 318 321 323 324 325 326 329 329 328 327 327 328 329 329 330 331 332 332 332 333 334 332 330 330 330 330 330 329 329 330 331 330 330 331 331 331 331 331 330 330 331 329 331 332 332 332 333 333 333 334 334 334 333 332 331 332 331 330 331 331 331 331 331 331 331 332 332 331 330 329 329 330
301 302 304 304 304 305 300 301 300 299 304 299 301 300 298 297 298 304 301 306 310 309 311 315 316 318 321 323 323 324 325 327 328 326 327 329 331 331 330 332 332 332 333 334 334 334 332 332 330 330 330 330 329 329 330 331 331 330 330 331 331 331 330 330 331 332 332 333 333 332 333 333 333 334 334 334 333 333 333 332 331 331 332 331 331 331 332 332 331 330 331 330 329 330 329 328 331
305 304 303 303 304 303 300 297 297 297 301 299 300 294 299 300 302 302 302 306 309 309 309 312 315 317 319 321 322 322 324 325 325 326 328 329 331 331 330 331 332 332 333 334 334 333 334 334 333 332 331 330 330 330 331 331 331 331 331 331 331 331 330 330 330 333 333 333 333 333 333 334 333 334 335 334 334 333 333 333 332 331 332 332 331 331 330 330 329 329 329 329 326 327 326 327 327
303 302 303 301 299 300 297 298 297 299 298 297 300 295 298 301 303 304 306 309 306 305 307 310 313 315 317 319 321 322 323 324 325 326 329 330 330 330 330 331 332 333 333 333 333 334 334 334 334 333 331 331 330 329 330 331 332 332 331 331 331 332 331 331 331 333 333 334 334 333 334 333 334 333 334 334 333 333 332 332 331 331 332 332 330 330 330 330 330 329 328 327 327 327 327 327 326
301 300 299 299 298 301 300 298 298 300 297 298 298 295 296 299 303 298 301 307 306 304 305 308 311 313 315 318 319 321 322 324 325 326 327 328 329 329 330 330 331 332 332 333 333 334 333 334 335 334 333 331 331 330 331 331 332 333 332 327 331 332 331 331 331 332 333 334 333 333 334 334 333 334 334 334 333 333 332 331 331 331 333 331 331 330 329 328 329 329 329 328 326 326 326 326 326
299 300 299 297 298 297 297 296 295 296 297 298 298 296 292 297 299 297 297 304 305 303 304 306 309 311 313 315 318 320 322 323 324 324 325 327 328 329 329 330 331 331 332 332 332 333 333 334 334 334 334 334 332 331 331 332 332 333 333 332 331 332 331 332 333 333 334 334 333 332 334 334 334 334 334 334 333 333 331 331 331 333 333 331 330 330 329 329 327 328 327 328 328 325 324 324 324
297 298 299 298 297 297 297 296 295 297 297 296 297 294 295 298 300 299 298 303 305 303 304 305 306 309 312 315 316 318 320 321 321 323 325 327 328 328 329 327 330 331 332 331 332 332 332 332 333 333 334 335 334 333 331 331 332 333 334 334 331 331 332 333 335 335 335 334 333 332 334 334 333 334 334 333 332 333 333 332 332 332 332 331 330 330 329 329 328 328 326 328 327 326 324 324 324
296 294 296 294 295 295 298 297 296 295 295 295 297 295 296 298 301 302 301 303 303 303 303 305 305 306 309 312 314 316 318 319 321 324 326 327 327 328 328 329 330 330 330 331 331 331 332 332 332 332 332 333 334 335 334 332 332 333 333 334 333 331 332 333 334 335 336 336 334 334 335 334 332 334 334 333 332 332 332 333 333 333 332 330 329 328 329 329 329 328 328 327 328 327 326 326 325
299 298 298 298 296 295 295 298 296 295 295 295 295 295 296 298 300 302 301 301 301 302 304 304 305 306 306 308 311 315 316 317 321 324 326 327 328 328 327 328 328 330 330 330 329 330 330 331 331 331 331 332 333 334 334 332 332 330 330 332 331 330 331 330 332 333 334 335 336 335 335 334 333 333 334 333 333 332 332 332 332 333 332 330 328 328 328 328 328 329 329 328 327 326 326 326 326
301 299 298 297 298 298 295 295 296 295 294 296 297 297 297 298 300 301 302 299 300 300 301 302 304 305 306 306 307 311 314 316 322 323 324 324 326 327 328 328 327 328 329 330 330 330 330 330 330 329 331 332 332 331 332 332 329 329 330 330 330 331 330 331 330 331 333 334 334 335 335 334 334 334 333 333 332 330 332 333 333 333 332 330 329 328 329 330 330 330 328 328 326 324 325 325 326
300 298 297 295 296 297 297 295 294 296 294 296 293 294 296 297 299 301 301 298 299 300 301 302 302 303 305 306 307 308 310 315 317 316 318 322 323 325 326 327 325 325 326 328 328 329 330 331 330 330 331 332 332 332 332 332 333 332 330 330 331 331 331 329 329 331 332 333 333 334 335 335 335 335 333 333 333 333 332 332 332 332 332 331 330 330 330 327 331 329 328 325 324 323 323 324 324
301 299 298 295 294 295 294 294 294 295 294 295 294 293 295 297 299 301 301 300 301 302 302 303 303 304 303 303 305 307 307 308 309 311 314 317 321 323 324 326 326 327 327 328 329 330 329 329 330 331 332 332 332 333 333 332 333 334 333 333 332 332 334 334 333 333 334 334 335 336 336 336 335 335 334 333 333 332 332 332 332 332 332 332 331 331 329 328 329 329 328 325 324 322 322 324 323
299 298 296 296 296 294 295 293 293 294 294 294 294 292 294 297 298 299 301 301 301 303 303 303 303 303 303 304 305 306 306 308 308 308 309 312 316 320 322 324 325 326 326 327 328 328 329 329 330 331 332 332 332 332 331 334 334 335 335 335 335 334 332 333 334 335 336 335 335 336 336 336 336 335 336 334 332 333 333 332 332 332 332 332 330 328 328 328 329 328 328 326 326 321 319 319 321
299 300 299 298 292 296 297 293 293 293 293 293 293 293 295 297 296 298 301 302 300 301 300 300 301 303 304 306 304 305 304 307 309 309 308 308 310 314 318 322 324 325 326 327 327 328 328 329 330 331 331 332 332 331 332 333 334 333 334 334 335 334 335 332 332 332 333 333 333 334 333 335 335 335 336 335 333 333 334 334 331 331 331 331 331 330 329 329 330 329 328 327 325 322 321 321 317
296 298 300 300 297 294 292 293 293 293 292 293 292 290 292 299 297 298 301 299 298 300 299 300 302 302 302 300 301 303 305 306 306 307 309 309 308 310 313 318 321 323 324 326 328 328 329 329 330 331 331 332 332 333 333 332 332 331 331 329 326 327 326 326 327 328 330 330 330 332 332 333 334 334 335 336 335 333 334 333 332 331 332 332 331 330 330 330 328 328 328 327 324 323 324 319 317
295 296 299 301 298 297 294 292 294 292 289 291 292 289 289 295 294 296 296 296 297 300 299 300 302 303 302 301 302 303 303 303 305 305 306 306 307 308 309 312 316 319 322 326 327 328 328 329 329 330 330 331 332 332 333 331 331 331 330 329 329 327 326 327 330 331 331 331 331 331 332 333 334 334 334 333 333 333 334 335 334 332 332 331 331 330 329 329 329 328 328 326 324 322 322 320 319
296 301 299 298 297 296 296 294 294 292 292 294 290 292 286 287 294 299 298 295 297 298 300 300 300 301 301 301 302 302 303 303 305 305 305 306 306 307 307 309 312 315 319 323 325 326 327 327 328 329 330 330 331 332 332 331 329 330 330 330 329 328 328 328 330 331 332 331 331 331 332 332 333 334 333 333 333 333 333 334 334 332 331 331 330 329 329 329 329 328 327 326 326 324 323 322 320
299 298 299 297 298 298 296 296 293 291 289 288 290 292 286 287 293 295 295 294 295 297 299 301 301 302 302 303 303 303 303 304 304 306 306 306 306 306 306 307 310 312 316 319 321 323 325 327 327 328 328 329 329 330 330 330 329 329 329 329 328 328 330 330 330 331 330 331 330 330 331 332 332 332 333 334 333 334 333 334 333 332 330 329 328 329 329 328 327 324 322 323 322 322 323 323 321
294 298 301 299 298 296 296 294 291 288 286 284 289 291 286 287 295 296 294 293 295 297 300 301 302 303 304 304 304 303 302 303 304 303 304 306 307 307 307 306 306 308 312 315 318 321 323 325 326 326 327 328 329 329 329 329 329 328 328 328 327 328 328 329 330 330 330 330 329 329 330 330 331 330 331 332 331 332 333 333 332 331 329 329 325 327 324 323 324 323 323 322 322 321 321 321 320
297 299 297 296 295 294 292 292 289 286 282 285 291 290 289 284 293 296 295 295 297 298 299 301 302 304 303 303 303 305 302 301 301 302 303 303 303 302 303 303 304 306 309 311 314 318 320 322 324 324 326 327 328 328 328 327 327 328 328 328 328 328 328 328 327 328 329 328 327 328 328 329 330 330 329 329 331 330 329 329 329 329 328 325 323 324 324 324 324 323 322 322 321 320 319 318 317
298 295 294 293 290 291 290 286 289 284 283 287 290 288 290 283 290 295 299 296 296 299 300 300 301 302 303 304 302 299 297 298 299 299 300 301 301 302 301 300 301 303 305 307 312 315 317 320 322 323 324 325 327 327 327 327 326 327 328 328 328 328 328 327 326 326 326 326 327 327 328 328 327 328 328 329 330 330 329 328 327 326 324 322 322 323 324 324 323 322 321 320 319 319 317 316 316
295 293 293 289 283 286 282 284 280 281 283 286 286 286 286 285 292 295 295 297 298 297 298 301 302 302 303 303 301 299 299 298 299 301 302 304 303 305 305 303 303 302 303 304 308 312 315 318 320 321 322 325 326 326 326 326 326 326 327 327 328 328 328 328 327 326 327 326 327 327 325 325 325 324 324 326 327 327 325 325 324 323 322 322 323 323 322 321 320 320 320 317 316 315 315 315 315
292 290 290 287 282 282 282 283 285 285 285 285 286 288 284 291 294 298 298 300 301 301 299 300 300 299 300 301 301 299 301 299 300 302 302 304 305 305 305 304 303 303 303 304 306 309 313 315 318 319 321 324 325 325 325 325 325 326 327 327 327 328 328 328 328 327 327 326 327 327 326 325 324 323 323 323 325 325 323 323 323 323 323 324 324 325 323 322 321 320 319 316 314 314 315 315 314
292 296 295 291 289 286 282 285 281 283 285 284 286 286 286 288 292 292 295 297 296 297 297 299 299 299 300 300 299 298 298 299 299 299 300 301 303 303 304 305 305 305 304 304 306 307 310 312 315 317 319 322 323 323 324 324 324 325 326 327 327 328 328 328 328 328 328 326 327 327 327 326 326 325 325 325 325 322 321 320 320 320 319 320 320 319 316 316 317 316 316 315 313 311 312 310 309
295 297 297 291 290 294 288 287 288 284 284 283 282 286 291 293 296 297 298 297 296 296 296 296 296 297 298 297 298 300 302 302 302 299 300 301 302 302 303 303 304 304 304 305 305 306 308 310 313 315 317 319 321 321 322 323 324 325 325 326 327 327 327 328 328 328 327 328 327 327 326 326 327 327 326 324 321 320 319 319 318 317 316 317 317 315 314 313 313 312 310 308 305 306 307 306 304
292 291 287 292 295 293 285 284 284 284 285 285 288 286 290 295 296 299 300 296 296 296 295 294 295 298 298 299 302 300 300 301 301 301 301 302 302 301 301 302 304 303 303 303 305 307 308 310 312 313 315 317 319 320 322 323 323 324 324 325 326 326 326 326 326 327 327 328 327 327 326 326 327 326 322 320 317 317 317 317 316 317 316 315 311 311 312 312 312 309 309 307 304 304 305 302 301
294 287 292 295 297 295 290 285 282 284 283 285 284 285 288 288 287 297 293 295 297 298 298 297 298 297 296 301 304 304 303 302 301 301 301 301 301 301 302 300 299 301 302 301 300 302 305 309 312 313 314 315 317 318 319 321 321 322 323 323 324 325 326 326 326 326 327 325 325 325 326 324 323 322 318 315 315 314 315 311 315 313 313 311 308 308 308 308 310 310 308 305 303 303 303 301 300
296 294 300 293 287 285 288 286 278 280 279 282 285 284 285 289 291 294 293 292 295 297 300 297 296 297 298 301 302 302 300 299 300 300 302 302 302 302 302 302 301 299 297 298 299 300 301 302 304 307 312 315 317 317 317 318 320 321 321 322 322 323 324 325 325 326 326 324 321 322 322 321 320 316 314 312 312 311 310 310 312 310 307 305 304 303 304 305 306 307 305 303 301 300 297 295 296
294 295 294 296 292 290 285 287 287 287 283 282 283 282 286 290 292 295 296 296 298 298 298 299 299 300 299 300 302 302 301 301 300 300 301 302 303 303 303 303 303 301 300 300 300 301 301 301 301 303 305 307 309 312 312 312 315 317 318 320 321 322 322 322 323 323 323 322 320 320 319 317 316 313 312 311 310 309 308 308 307 304 301 300 300 301 302 302 304 303 297 296 295 296 295 293 293
289 291 291 291 290 292 293 290 287 286 284 283 284 282 287 292 295 296 297 299 300 300 301 302 303 301 299 300 301 302 301 300 300 299 299 300 302 303 303 302 301 298 296 298 300 302 303 302 302 303 305 306 306 307 308 310 313 314 315 316 318 319 320 320 320 321 321 320 320 319 318 317 313 310 309 308 307 307 308 307 305 300 296 297 298 298 300 301 300 299 297 295 294 294 293 293 292
292 292 290 291 288 285 284 284 288 285 285 282 281 281 289 294 293 295 297 299 300 301 301 302 302 297 299 301 301 300 300 300 299 298 298 300 301 302 303 301 298 296 298 299 301 302 303 304 305 305 304 305 305 306 306 307 308 310 312 314 316 317 318 319 318 318 317 317 318 317 316 311 309 309 307 307 306 304 303 302 301 299 298 298 296 297 297 298 297 296 294 294 293 293 292 291 291
Wind_Speed
2 1 1 1 1 1 4 1 5 3 3 2 1 2 5 0 1 4 4 6 5 3 2 3 8 9 0 1 2 4 3 3 5 3 4 3 3 8 7 8 9 10 9 8 8 8 8 8 7 7 10 11 13 13 13 13 13 12 13 13 14 14 14 13 12 13 14 13 12 12 14 13 13 13 12 13 12 13 14 14 15 15 14 13 13 15 16 15 16 17 17 16 16 16 16 16 16
1 1 1 1 1 2 2 2 1 2 1 3 3 1 4 4 2 6 7 6 4 6 4 5 6 4 3 2 3 2 3 5 6 5 3 4 8 7 7 9 9 9 8 8 8 7 8 8 6 8 11 12 12 12 13 14 13 13 13 14 14 13 11 11 15 13 12 13 14 13 13 12 12 13 14 12 12 12 13 15 14 13 13 15 17 17 17 16 17 17 16 16 16 15 16 15 15
0 2 3 1 2 2 2 2 4 1 2 1 3 1 4 5 6 6 4 3 6 7 6 7 8 3 3 3 4 4 3 3 3 3 5 7 10 7 8 9 8 8 8 7 7 7 7 7 6 9 12 13 14 13 12 14 14 13 13 14 14 13 12 11 13 13 13 13 13 13 13 14 13 13 13 12 12 13 14 13 14 14 13 12 13 14 15 15 16 16 16 15 15 15 15 15 15
0 1 2 1 1 2 2 1 1 2 2 3 0 4 6 5 5 6 5 8 8 8 7 9 9 1 4 6 1 1 1 2 3 5 5 8 4 9 9 9 8 7 7 6 7 7 6 7 8 11 12 14 13 12 13 14 14 13 13 13 12 14 12 12 12 12 12 12 12 12 13 14 13 13 13 13 11 12 14 15 13 12 15 14 14 15 16 16 16 15 15 15 15 15 15 15 15
2 2 2 1 3 1 2 2 1 2 2 1 3 3 6 4 7 6 7 7 6 2 5 6 3 3 3 4 2 3 3 3 4 3 6 6 7 9 10 9 8 7 7 7 8 7 7 8 7 10 13 14 15 14 14 14 13 13 12 13 13 12 14 12 12 10 12 12 13 13 12 12 11 11 13 12 12 11 12 13 13 13 12 14 14 15 15 16 15 15 15 15 15 15 14 14 14
1 1 2 1 2 2 2 3 3 0 4 1 1 4 3 4 8 8 10 6 3 1 3 7 2 5 4 1 2 2 4 2 5 5 8 7 10 10 10 9 7 7 7 7 8 7 8 7 7 9 12 14 14 13 13 13 13 13 12 13 11 13 14 12 11 11 12 12 11 11 13 13 13 13 12 12 11 11 11 12 13 13 12 12 13 13 14 14 15 15 15 15 14 14 14 13 13
2 3 1 2 3 2 2 1 1 1 4 2 3 3 2 6 8 11 9 5 3 1 1 3 2 5 3 3 2 1 2 3 5 6 6 10 11 10 10 8 7 8 7 7 7 7 10 6 10 11 10 12 14 13 13 13 13 12 12 12 11 9 8 11 11 10 12 12 12 12 11 12 11 12 12 12 11 11 10 11 13 14 13 13 13 14 14 15 15 15 14 14 14 14 13 13 13
1 4 3 3 2 3 1 1 0 2 3 2 3 2 2 6 8 10 11 8 6 4 6 1 4 5 4 0 2 4 3 2 2 8 9 10 11 10 9 8 8 8 8 8 7 8 10 6 9 9 10 13 12 13 13 12 12 11 10 11 11 9 8 13 11 11 12 11 11 12 11 12 12 12 11 11 11 12 11 11 12 12 13 14 14 14 13 14 14 14 13 13 13 13 12 12 12
3 2 1 2 2 0 2 2 1 1 2 2 3 3 3 3 8 9 11 3 3 2 6 6 2 5 5 4 1 3 3 1 4 9 10 11 11 10 7 7 8 8 9 8 7 8 10 8 8 8 9 10 11 13 12 12 11 11 10 10 10 10 10 12 11 10 10 10 9 10 10 12 10 11 10 11 10 10 10 9 11 12 13 14 13 13 13 13 14 13 13 12 12 12 11 11 11
1 3 2 1 2 3 2 2 3 2 1 1 2 1 3 6 8 6 9 5 3 6 4 3 0 3 5 4 4 4 4 4 8 10 10 11 11 10 8 7 6 9 10 8 8 8 9 9 8 9 8 7 10 11 12 11 11 11 11 11 11 10 12 11 11 10 10 11 10 9 10 9 9 9 10 10 11 11 10 10 11 13 13 13 13 13 12 12 12 12 12 12 11 10 10 10 10
3 3 2 4 3 2 4 3 2 2 1 0 4 3 4 6 7 6 4 2 3 4 6 3 5 4 5 2 2 4 3 6 11 12 11 10 11 10 8 7 7 8 9 9 8 9 10 10 10 8 7 7 10 10 10 10 11 11 11 11 10 12 12 11 11 11 10 11 10 10 10 10 10 11 10 11 11 10 10 10 10 10 12 12 13 12 12 11 12 11 11 10 10 9 9 9 9
3 1 2 4 4 3 1 2 1 1 1 1 2 5 4 9 6 6 6 5 5 5 6 9 1 7 4 4 3 4 5 7 11 10 11 11 9 10 9 7 8 8 8 8 8 9 9 10 10 8 7 8 8 7 9 9 9 10 10 10 9 11 11 10 10 11 10 10 9 9 10 10 10 10 10 10 10 10 10 10 9 10 11 11 11 11 11 11 11 11 11 10 9 9 9 8 8
2 0 3 4 1 2 2 3 1 3 3 2 3 4 6 9 9 6 7 0 6 6 4 7 4 4 4 3 4 4 6 9 8 9 10 10 9 9 7 7 9 8 8 8 8 8 8 8 8 9 8 8 7 8 9 9 9 8 8 8 6 6 11 11 10 10 11 11 10 10 12 13 12 11 11 11 10 10 9 9 8 9 9 11 10 10 11 11 11 10 10 10 11 10 10 9 9
2 1 1 2 1 0 2 2 1 3 1 4 3 5 8 6 5 2 5 6 7 6 4 2 7 2 2 1 5 7 8 11 9 9 8 10 9 8 8 7 9 9 9 9 8 8 7 6 6 8 9 9 9 8 9 8 8 8 9 10 10 11 12 12 11 10 8 9 9 9 9 10 10 10 10 10 10 9 7 5 6 9 10 10 10 10 11 11 10 10 10 10 10 11 11 11 10
1 1 1 1 2 2 1 2 1 1 3 1 4 5 6 0 2 2 7 6 6 5 3 0 1 2 3 8 6 7 10 12 10 10 9 9 9 8 8 6 8 9 9 9 8 7 7 6 6 6 5 6 9 7 7 7 8 9 9 10 11 10 10 11 10 9 9 9 9 9 10 9 9 8 8 8 8 7 7 9 9 8 9 9 9 9 9 10 10 10 10 10 10 10 10 10 10
2 2 0 3 2 3 3 2 2 3 4 3 3 4 6 3 1 4 1 5 4 3 2 4 3 2 3 2 7 5 13 12 10 11 10 10 8 8 8 6 7 8 8 8 8 7 6 7 6 6 6 6 6 7 7 8 7 9 9 10 10 11 10 9 10 10 9 9 9 9 9 8 7 7 7 7 8 8 7 7 7 7 8 8 8 8 8 8 10 10 9 9 8 8 8 8 8
1 2 4 2 3 4 3 2 3 1 5 3 2 4 8 6 1 2 3 2 3 5 4 1 4 1 2 4 3 1 14 11 10 11 10 8 7 7 7 5 6 6 6 7 7 7 7 7 8 7 6 6 6 7 7 7 6 8 8 9 10 10 10 10 10 10 9 8 8 8 7 5 5 5 5 6 5 6 7 7 8 8 8 8 7 7 7 7 9 9 8 7 6 5 5 6 7
2 2 2 4 1 3 3 2 2 1 3 5 2 5 6 6 4 3 2 3 1 3 5 3 1 4 2 3 2 6 15 14 13 12 10 9 7 7 7 6 7 7 7 6 7 7 7 7 8 8 6 7 6 6 4 5 5 5 8 7 7 8 8 9 8 7 7 6 6 6 4 4 4 4 5 4 5 5 6 7 8 8 9 9 9 8 8 9 9 7 6 6 5 3 3 1 4
3 1 2 3 3 4 1 2 1 1 4 5 2 2 5 2 6 5 6 6 6 4 6 4 5 6 3 2 4 12 14 14 14 13 13 12 10 9 8 6 7 7 7 6 6 9 7 6 7 7 7 7 6 6 5 5 7 6 6 5 5 6 7 7 6 6 6 6 6 4 4 3 3 3 3 4 4 7 6 7 8 9 9 8 8 8 6 6 5 4 4 4 3 2 2 2 3
2 3 3 1 3 3 2 1 2 1 3 4 2 3 5 2 2 5 6 3 5 10 7 7 8 9 9 6 8 13 14 15 15 14 14 13 11 11 10 7 7 7 7 6 7 7 8 7 8 7 7 7 7 6 6 6 6 5 5 5 5 5 6 5 5 6 5 6 5 4 3 4 3 3 5 4 4 3 5 6 6 7 8 7 3 4 5 5 3 4 3 1 3 0 1 2 2
1 3 4 3 3 3 5 3 1 1 3 3 2 1 4 4 4 5 3 5 9 10 10 11 12 11 11 9 12 14 15 15 16 15 14 13 12 10 11 7 6 6 5 5 5 7 9 8 8 8 8 7 7 5 6 6 5 4 5 5 5 4 5 5 5 6 5 6 5 4 3 4 3 3 3 3 1 2 2 2 3 1 1 2 1 1 0 1 2 1 2 2 0 0 1 2 3
1 2 4 3 2 1 4 3 2 1 2 2 1 3 1 4 3 8 7 10 6 7 8 11 7 8 13 13 14 14 15 15 16 16 16 15 15 14 11 9 4 4 5 6 6 7 9 8 9 9 9 8 7 6 6 5 4 6 5 5 5 4 5 5 5 5 5 5 5 4 4 4 4 3 3 3 2 2 2 1 1 1 1 1 0 0 0 0 0 1 0 1 1 1 2 2 2
6 3 2 1 1 2 2 2 3 2 2 3 1 0 1 5 4 6 10 15 1 5 5 3 5 4 9 10 13 15 15 16 17 19 18 17 16 14 12 11 8 7 6 6 6 6 8 9 9 8 9 9 9 7 6 5 6 6 5 5 6 5 4 5 5 5 5 5 5 5 5 4 4 3 3 3 3 2 2 1 1 1 1 1 0 1 0 0 1 1 1 1 1 1 2 1 2
3 2 2 3 1 3 1 1 4 3 4 2 2 2 4 2 8 2 11 15 1 4 4 2 0 7 12 13 14 17 18 19 20 19 19 18 17 17 14 13 10 7 6 7 7 6 7 9 10 10 9 10 9 8 7 6 6 6 6 5 6 5 5 4 4 4 4 5 5 5 5 4 4 4 3 3 3 2 2 2 1 2 2 1 1 1 1 1 1 1 1 1 2 1 2 2 2
6 6 4 2 2 4 2 4 3 2 4 0 2 4 3 5 4 1 10 11 8 3 2 2 5 8 10 12 14 14 16 16 16 16 14 13 14 13 12 10 11 9 8 8 7 7 8 8 9 10 9 10 8 9 8 7 6 6 6 6 6 5 6 5 4 4 4 4 5 4 5 4 4 4 4 3 3 3 2 2 2 2 1 1 1 2 2 1 1 1 1 1 2 2 2 1 2
8 6 4 3 3 4 2 4 2 2 1 3 4 6 2 3 2 9 14 6 6 6 3 5 6 8 10 13 14 14 15 17 16 16 17 14 13 15 14 12 11 11 11 8 7 7 7 8 9 10 9 8 8 8 7 7 7 7 6 6 5 6 6 5 6 5 5 4 4 5 5 5 4 4 4 3 3 3 2 3 2 2 2 2 2 2 2 1 1 1 2 2 2 2 3 2 3
2 3 2 4 4 4 1 4 1 1 2 4 6 3 0 2 2 5 4 0 3 6 5 4 7 8 9 9 10 11 13 15 17 14 13 14 14 15 14 13 13 12 11 11 9 6 6 8 8 9 9 8 8 8 7 7 7 7 6 5 5 6 6 5 6 6 6 5 4 5 5 5 4 4 4 4 3 3 3 3 3 3 3 3 2 2 1 2 2 2 2 2 2 3 4 3 2
3 2 2 3 3 4 3 2 4 1 3 5 4 4 1 3 3 8 3 2 4 8 5 5 6 7 8 9 9 9 9 10 10 12 16 17 14 14 14 13 13 13 13 12 10 9 8 9 9 9 9 9 9 9 8 7 7 6 6 6 6 7 7 6 5 5 6 6 7 7 6 5 5 4 4 4 4 3 3 3 3 3 3 3 3 3 2 2 2 2 2 2 3 3 4 4 3
2 1 4 2 4 7 5 5 1 3 4 4 3 6 7 8 9 8 3 2 5 6 6 5 5 5 5 7 7 7 9 8 10 12 15 14 12 12 15 15 14 13 11 12 12 11 11 11 9 10 10 10 11 10 8 7 6 6 6 6 6 6 7 7 6 6 5 6 6 8 8 7 6 5 5 5 4 4 4 3 4 4 4 3 3 3 3 3 3 3 3 2 3 4 3 5 3
2 1 3 4 4 8 1 1 1 4 1 4 3 8 10 11 15 5 3 4 5 5 6 6 5 5 5 6 7 7 7 8 11 13 12 12 12 13 14 14 15 13 11 10 13 13 11 8 8 8 10 12 12 9 8 7 7 6 6 6 6 6 6 7 7 6 6 6 6 7 8 8 7 6 5 5 4 4 4 4 4 4 3 3 3 3 3 3 3 3 3 3 3 5 7 5 5
3 3 1 2 2 2 2 1 3 6 2 4 3 10 9 2 5 6 4 4 7 7 7 7 6 6 6 7 7 8 10 10 12 12 12 12 12 11 14 14 15 15 12 12 13 14 14 11 8 8 10 12 12 11 10 8 7 7 6 6 6 7 6 6 6 6 6 6 6 6 7 7 7 7 6 5 5 5 4 4 4 4 4 3 3 3 3 5 4 5 5 6 7 6 5 5 6
2 4 4 2 5 2 3 3 4 5 3 2 4 10 10 9 6 5 2 3 5 8 7 7 6 6 6 6 8 8 9 9 10 11 12 13 13 12 13 15 15 16 16 15 13 12 14 14 11 11 10 12 13 12 12 10 9 8 7 7 6 7 6 6 6 6 6 6 6 6 7 7 7 8 7 6 5 5 5 5 6 6 4 4 4 4 3 4 5 5 5 5 6 6 5 6 6
1 5 3 4 4 1 5 1 2 2 2 4 10 6 4 4 1 3 1 4 6 9 8 5 6 6 6 6 6 7 7 9 10 12 14 14 13 13 12 14 14 16 16 16 15 14 15 15 13 14 13 13 13 13 13 12 11 10 9 9 9 9 8 6 6 6 6 6 6 6 7 7 8 8 7 7 6 6 5 6 5 4 3 4 5 4 5 5 5 5 5 4 5 6 5 6 5
6 3 4 4 5 4 4 2 1 1 2 6 8 6 10 7 4 3 2 3 4 7 8 7 6 5 6 5 6 7 8 9 11 13 16 15 12 14 12 12 14 14 14 15 15 15 15 15 15 14 13 12 11 11 12 12 12 12 11 10 9 9 10 7 6 6 6 5 6 6 7 8 7 8 8 7 7 6 6 5 5 5 5 5 6 5 6 6 5 5 4 3 4 4 4 4 4
9 7 5 4 4 5 4 4 3 1 4 5 6 11 15 13 12 9 5 4 4 6 7 7 6 6 6 6 7 9 9 10 12 12 13 13 13 12 12 13 13 14 13 15 15 14 13 13 11 11 10 14 14 13 12 11 12 12 11 11 10 10 9 8 8 8 8 8 6 6 7 7 7 8 8 8 7 6 6 6 7 8 6 6 6 6 6 7 6 6 6 4 2 3 4 4 4
8 11 7 5 6 7 7 5 2 1 3 5 8 10 12 14 14 15 5 5 6 8 6 5 5 6 6 7 7 8 9 11 10 8 9 10 11 11 11 12 13 13 14 13 15 15 15 15 14 14 14 16 14 14 11 10 9 10 11 11 10 9 8 8 8 8 8 8 8 6 7 7 7 8 8 8 8 7 6 6 8 9 7 6 5 6 6 6 6 7 7 6 5 2 3 4 4
5 6 5 5 5 3 2 2 4 1 3 9 9 11 14 15 14 14 5 4 4 7 9 9 7 7 7 7 8 9 9 12 5 7 8 10 10 11 11 11 12 14 15 16 15 16 16 16 14 16 13 14 12 12 11 11 12 11 11 11 11 10 9 8 8 8 8 8 9 9 7 7 8 8 8 8 8 8 7 7 7 9 8 7 7 7 8 7 6 6 5 3 4 5 4 3 2
8 7 6 4 5 5 4 3 3 1 3 3 1 6 12 14 13 15 8 3 11 11 10 10 11 9 6 7 8 9 10 6 6 5 7 9 10 13 12 12 14 16 16 17 19 18 18 18 17 16 14 14 14 13 12 12 13 12 11 11 10 9 9 10 9 8 9 8 10 11 10 9 9 8 7 8 8 8 7 6 7 9 10 8 8 8 8 7 5 4 3 4 3 4 4 3 2
8 6 5 4 5 1 0 1 1 2 2 8 1 8 11 13 13 11 11 10 11 11 11 12 10 8 8 7 8 8 5 9 8 9 9 10 12 12 12 12 13 16 16 17 17 17 17 17 17 17 15 15 15 14 14 13 13 12 12 10 11 9 9 10 10 9 9 10 11 12 12 9 9 8 8 8 7 8 8 8 8 8 9 6 5 5 4 6 6 8 7 7 5 3 4 3 4
7 6 7 7 4 6 4 4 2 3 3 4 2 8 10 11 13 13 13 12 12 12 11 12 10 11 11 11 8 6 9 8 10 10 11 11 11 11 12 12 14 14 14 14 14 16 14 15 16 16 15 15 15 15 13 15 15 14 14 14 13 12 9 10 11 12 13 14 14 14 13 12 10 9 11 11 8 9 9 8 8 8 8 6 6 7 8 8 10 8 6 8 7 6 3 3 2
5 8 7 6 6 7 4 2 1 2 1 2 6 10 13 11 13 11 9 8 8 9 6 9 8 9 9 3 4 8 11 10 10 9 8 9 11 14 15 14 12 13 14 14 15 15 13 18 18 17 14 14 14 15 17 16 14 13 12 11 11 10 9 9 10 12 13 11 10 10 12 10 11 11 10 10 9 10 9 8 7 8 9 8 8 9 10 9 9 8 8 8 7 7 5 3 2
6 8 9 8 8 6 3 3 2 3 3 4 3 7 12 9 14 13 6 4 9 6 8 10 10 10 9 9 12 10 9 9 10 11 9 9 10 10 11 12 13 13 14 16 15 17 16 14 14 14 13 13 13 15 15 14 13 13 13 11 13 13 13 11 13 14 10 9 10 8 8 9 10 11 12 12 11 10 10 9 8 9 10 10 10 10 10 9 8 8 8 8 7 8 6 5 3
7 8 11 10 8 6 4 3 1 5 6 2 3 6 9 1 4 3 4 5 9 7 6 9 8 7 7 8 9 9 10 10 11 11 9 9 11 10 11 12 15 14 16 13 13 14 15 13 13 15 14 12 12 13 15 13 15 14 16 16 14 13 14 10 10 11 10 9 8 9 9 9 11 12 12 12 11 11 11 10 10 11 10 11 9 8 8 9 8 8 7 7 7 6 5 5 6
7 4 12 5 7 8 6 2 4 4 4 2 3 3 8 13 7 10 5 6 8 10 9 8 9 10 10 9 9 9 9 10 9 12 12 12 12 12 14 14 12 14 12 9 11 11 14 15 14 14 13 12 12 12 14 17 15 15 15 14 11 16 15 14 12 13 12 9 10 11 10 10 11 12 11 11 10 10 10 11 11 9 8 9 9 9 9 8 7 7 7 7 6 6 8 7 6
1 3 11 9 9 7 5 4 2 1 5 6 3 3 5 11 3 3 2 8 10 14 14 9 9 10 10 10 10 10 11 11 10 9 11 11 11 12 12 10 10 10 10 11 11 11 12 12 13 13 13 13 12 14 15 17 16 16 16 15 15 14 14 14 12 12 12 11 12 10 12 11 10 11 10 9 10 12 11 12 11 8 8 9 8 8 8 7 9 7 6 6 7 6 6 6 6
2 5 5 6 6 5 2 2 1 0 2 9 4 6 7 14 12 8 4 5 10 12 13 14 11 10 8 7 8 9 9 7 6 9 10 9 9 8 8 8 8 10 7 8 9 9 11 11 13 15 16 13 12 14 14 17 19 16 16 17 17 15 12 13 13 12 12 11 11 12 11 11 10 9 10 10 6 9 10 10 10 10 9 9 7 7 6 6 6 6 7 7 7 8 5 6 7
9 9 9 6 4 2 3 2 2 0 7 8 5 8 6 11 6 8 7 8 11 9 9 8 6 7 8 8 8 6 3 3 4 7 8 8 5 5 4 8 10 7 6 9 10 10 10 12 13 15 17 13 13 14 15 19 18 17 16 18 18 17 16 14 12 11 9 10 13 13 12 11 9 9 8 8 9 8 7 7 8 9 7 6 7 7 8 8 8 7 7 8 8 9 7 6 6
11 5 7 8 4 3 2 1 1 4 6 3 6 6 8 11 3 2 3 5 3 10 14 15 13 12 10 8 6 1 2 3 4 5 7 6 6 6 5 9 9 8 7 9 9 9 11 12 12 15 15 15 13 13 15 17 16 17 17 17 17 17 16 14 14 15 14 14 13 12 10 9 8 7 8 8 9 9 7 6 7 7 6 6 7 6 8 8 7 8 8 8 8 8 8 7 6
3 8 9 7 3 2 2 2 4 8 6 2 1 1 4 20 11 7 6 7 7 7 8 10 10 8 7 4 1 2 2 4 5 6 5 4 5 5 6 7 6 8 9 10 9 9 9 11 13 14 15 14 13 13 14 16 16 16 16 17 17 15 16 15 15 15 15 14 12 12 9 10 8 8 7 8 9 9 7 7 9 7 6 7 8 9 8 8 8 8 8 8 8 9 8 8 7
7 10 9 7 6 5 7 7 2 4 2 1 4 3 11 8 7 13 19 16 13 11 9 8 7 8 7 5 3 5 6 7 7 6 6 6 5 5 5 5 6 5 7 8 8 8 7 8 10 12 12 10 12 11 14 16 17 17 16 16 16 14 15 15 14 14 14 13 12 13 11 11 10 10 10 9 7 10 7 7 8 9 9 9 10 10 9 9 10 9 10 9 8 6 7 7 5
11 7 12 8 5 4 11 7 10 4 1 4 1 1 6 2 2 6 6 6 6 5 6 5 6 7 7 7 7 9 10 9 6 6 7 7 6 6 6 5 5 5 5 6 5 6 6 7 8 10 10 9 10 12 14 16 15 16 16 16 15 14 15 14 15 13 13 13 11 12 11 12 12 11 11 10 9 8 8 7 7 7 8 9 9 10 8 9 9 6 6 8 8 6 7 5 5
10 6 1 3 8 2 3 1 3 3 2 2 5 7 3 3 6 7 8 8 9 7 7 5 7 6 6 6 8 8 8 6 2 4 6 8 6 5 5 5 5 4 5 5 6 6 6 7 7 8 10 9 10 13 14 14 15 13 15 16 17 15 11 11 11 8 11 12 13 13 11 12 12 12 11 7 8 9 8 9 8 7 9 10 10 10 9 6 6 7 7 6 6 4 7 7 6
10 5 10 6 5 4 3 1 5 3 1 9 4 6 6 6 13 16 14 4 10 7 6 3 6 5 4 7 6 6 7 7 6 5 6 5 3 4 5 5 4 3 3 5 5 5 8 8 8 9 10 9 10 12 13 13 13 14 15 15 14 12 12 11 11 13 13 11 12 12 11 12 10 8 7 8 9 8 8 9 10 9 10 10 7 6 8 8 7 5 6 7 7 6 7 7 7
10 8 9 4 1 5 2 3 2 4 7 4 3 9 8 3 7 2 3 9 13 8 8 6 5 3 5 6 6 4 4 4 5 6 6 6 5 5 3 2 4 3 3 3 4 3 3 3 6 8 8 10 10 11 12 12 13 14 12 13 15 12 9 10 11 12 11 10 9 9 9 7 9 8 8 8 9 9 9 10 10 10 10 9 7 8 7 8 9 7 7 6 6 8 8 7 7
7 7 7 11 7 8 5 1 4 6 6 4 5 4 8 9 9 2 3 5 6 9 10 6 6 6 5 5 7 6 5 4 4 4 4 4 4 4 3 3 2 3 4 4 3 3 3 2 2 3 6 6 8 9 10 9 11 10 10 11 12 9 9 10 11 11 9 9 8 8 8 8 8 7 8 8 8 8 9 9 9 9 8 7 7 7 8 7 8 8 9 8 8 7 7 7 6
1 2 8 2 3 3 7 5 1 2 6 1 4 4 7 9 9 12 12 10 8 5 6 9 8 5 4 5 5 4 4 4 4 4 4 3 3 3 4 3 4 4 4 3 3 3 4 3 3 3 3 3 3 7 7 8 8 8 7 7 8 9 8 8 8 10 10 10 9 10 9 8 10 8 9 10 9 9 9 10 9 7 8 7 6 7 8 9 8 7 6 6 6 7 8 7 6
9 8 11 5 3 3 2 1 4 4 3 5 5 4 4 5 9 13 17 17 15 12 11 8 6 2 3 5 5 5 4 4 3 4 4 4 3 2 3 3 3 3 3 3 3 3 3 3 3 3 3 3 3 3 5 6 6 7 7 9 8 8 8 7 8 9 9 9 10 9 9 9 8 9 9 9 9 9 9 11 12 11 12 8 8 8 8 8 6 7 6 7 8 7 8 6 7
11 13 14 15 12 8 11 9 4 1 3 3 3 9 1 4 4 8 11 11 9 10 10 8 2 1 4 4 4 5 5 4 4 3 4 3 3 3 2 2 2 2 3 3 3 3 3 3 3 3 3 3 3 4 5 5 6 7 8 8 8 7 8 8 8 8 9 9 9 9 9 7 9 9 9 10 11 9 7 8 11 10 10 10 7 7 7 7 7 7 7 5 7 8 8 8 7
Wind_Direction
347 37 143 125 209 276 268 30 244 114 246 51 121 216 101 58 335 166 147 139 175 122 86 132 132 150 229 331 360 35 2 219 11 260 52 75 154 136 126 135 134 133 129 131 131 137 128 101 111 116 118 128 122 117 118 115 111 109 102 98 92 87 83 88 93 88 88 90 92 93 85 78 80 80 83 83 83 83 83 87 85 84 86 93 95 94 90 86 85 82 81 80 78 78 76 75 73
42 115 139 234 48 278 184 318 268 216 148 153 98 284 110 152 199 192 158 173 40 138 147 133 136 69 56 71 68 125 124 22 5 62 91 109 143 134 131 144 143 133 131 130 132 131 128 119 105 122 125 125 121 121 121 121 115 105 102 100 94 91 94 94 96 97 98 96 91 91 93 96 94 92 82 87 92 96 95 88 91 89 89 89 85 86 90 89 84 83 83 81 80 78 76 73 72
82 241 156 197 199 324 121 243 259 25 307 12 104 165 110 177 194 162 120 61 106 111 137 133 136 149 126 138 181 264 88 46 86 95 93 142 144 149 147 144 137 132 129 130 131 130 133 114 115 122 130 129 126 125 122 116 108 107 106 103 101 100 99 105 97 95 94 95 96 96 101 99 97 94 102 97 102 104 103 93 85 88 86 86 92 92 90 86 84 83 83 81 78 75 73 72 71
83 343 282 162 244 209 260 216 303 301 348 24 90 129 182 192 166 127 68 106 109 124 140 143 172 60 284 216 37 134 56 152 128 122 128 166 142 140 149 141 139 134 127 132 133 132 128 119 120 129 132 131 126 121 111 109 110 107 100 99 98 102 103 97 100 100 98 95 99 92 87 91 93 96 99 103 98 90 95 96 95 89 89 89 85 87 89 88 87 87 84 82 78 77 73 73 72
272 58 304 250 281 110 318 31 359 271 345 60 19 132 200 205 137 123 119 117 114 124 177 153 154 77 0 25 103 275 93 88 167 182 138 137 113 138 147 143 147 133 137 138 134 127 112 99 122 133 134 131 126 118 111 109 108 105 104 101 103 106 106 103 100 98 94 93 95 101 107 103 98 103 96 97 102 105 105 98 93 89 87 89 93 93 90 86 85 86 85 81 79 77 76 73 72
244 301 43 275 299 32 207 196 172 280 47 340 323 58 191 163 150 139 137 145 119 313 345 177 313 161 186 84 354 298 152 163 128 171 159 141 142 141 146 151 141 135 134 139 136 132 124 121 129 134 132 128 125 120 112 110 108 108 107 107 108 108 116 114 101 97 102 100 98 98 91 93 101 94 96 97 95 89 85 92 96 90 81 78 84 86 86 89 86 80 77 78 77 74 74 74 73
292 243 108 101 116 251 291 223 77 340 98 303 1 33 151 149 149 144 149 156 199 297 165 194 163 119 196 146 180 234 22 32 170 152 174 131 144 150 149 150 137 130 139 142 139 125 121 123 132 130 127 127 125 116 112 110 110 112 117 115 110 106 106 102 101 105 102 101 101 101 99 97 92 93 93 91 90 93 98 95 94 89 83 85 87 88 86 83 81 78 76 77 78 79 78 76 74
118 273 15 290 66 281 199 36 264 300 78 257 20 323 81 155 153 166 160 181 166 212 161 210 195 257 53 34 253 118 230 242 348 141 136 142 146 152 160 147 143 137 139 145 139 122 122 122 117 120 131 131 123 116 113 113 114 113 114 117 113 111 116 106 106 107 108 106 104 92 98 104 101 100 101 101 98 96 100 100 96 93 87 79 75 73 78 80 81 80 79 79 80 80 79 76 73
8 323 166 265 220 98 212 223 40 22 295 199 224 257 335 187 173 169 170 178 90 251 162 172 147 234 135 155 204 83 160 144 205 145 143 147 155 153 160 156 148 140 142 144 133 134 130 118 120 122 126 127 123 120 118 118 119 116 112 115 118 119 116 106 112 113 108 98 94 103 95 85 92 90 99 100 95 94 102 106 104 96 88 82 80 79 79 80 80 80 79 78 79 79 78 75 73
124 320 214 280 6 232 273 167 226 111 325 82 289 105 168 169 174 199 172 178 165 156 123 85 111 302 130 156 129 179 153 200 167 152 150 158 156 158 160 150 139 143 147 145 137 131 118 124 123 125 131 127 123 125 123 122 120 114 109 106 110 107 101 104 104 104 106 107 106 101 105 104 106 106 98 95 97 97 96 94 98 94 91 84 79 77 77 80 81 80 79 79 78 75 74 74 73
227 73 13 231 209 259 229 147 221 156 218 226 259 200 174 163 173 176 179 109 122 167 138 174 187 179 184 131 47 61 90 193 162 164 157 160 156 160 157 142 139 151 148 147 139 139 139 133 128 133 132 116 124 125 126 124 119 115 111 111 116 110 111 111 112 118 117 111 119 120 115 112 99 95 96 95 94 99 101 102 98 95 92 89 85 82 80 78 76 76 77 79 78 73 72 71 70
224 221 210 245 243 273 60 286 99 346 288 241 153 148 172 166 171 180 188 194 168 168 164 191 96 143 169 147 149 136 142 179 167 159 158 158 161 165 152 143 151 154 151 149 149 147 141 136 143 128 119 113 108 118 130 123 119 117 117 120 116 120 124 122 120 119 118 118 111 107 115 113 100 97 92 89 93 91 98 99 97 96 97 95 91 85 84 82 83 80 81 78 74 73 70 68 65
323 82 216 247 54 246 70 261 71 319 282 178 138 143 158 166 186 198 173 80 165 176 179 186 106 205 172 175 76 150 178 182 174 159 160 162 162 163 155 144 153 153 151 159 159 146 147 148 141 151 120 108 96 103 113 113 114 114 117 101 88 90 104 113 119 125 123 122 113 90 78 79 78 83 81 76 68 67 78 84 89 95 94 92 87 85 78 80 81 81 77 72 70 69 66 64 61
306 335 244 232 14 137 213 356 340 280 138 67 54 122 172 177 202 214 160 193 185 197 57 108 163 178 99 254 159 183 191 179 173 164 163 164 161 162 157 146 154 160 163 166 166 162 159 157 146 143 146 153 132 111 99 107 107 102 95 95 90 96 102 102 104 107 104 97 94 86 82 85 83 80 77 73 69 62 52 73 100 100 98 91 82 82 81 79 80 82 76 72 70 67 66 64 60
317 240 202 81 129 231 127 246 34 330 74 22 79 163 178 292 7 189 204 224 172 53 97 199 124 233 120 199 157 187 177 175 174 164 163 161 157 162 155 145 156 165 169 174 172 173 171 163 166 157 159 150 156 152 147 108 103 105 105 104 101 97 102 110 109 108 108 103 98 94 95 88 83 79 74 70 72 60 64 76 64 84 99 91 86 87 85 82 81 78 75 71 68 65 63 61 56
34 243 33 226 168 259 132 225 148 279 60 350 79 335 194 108 283 196 194 342 85 80 223 161 222 284 2 256 48 132 159 166 169 163 162 155 156 152 154 155 162 164 170 181 179 182 180 177 176 173 170 174 166 163 158 146 112 113 115 111 109 108 107 108 114 109 105 105 104 113 113 117 115 95 89 88 74 70 53 66 81 92 96 97 99 98 89 84 83 78 74 72 65 62 60 58 53
215 290 216 202 202 220 109 245 191 100 24 69 121 199 196 176 128 316 349 270 201 152 196 102 186 218 312 44 47 220 144 153 163 163 156 147 154 156 160 161 164 168 176 184 186 184 188 190 190 184 179 175 162 171 165 150 109 119 114 111 110 112 113 111 109 115 115 115 123 122 145 146 134 130 148 109 108 72 59 72 78 80 94 93 92 92 83 85 83 76 74 76 71 67 74 83 68
243 226 243 221 99 178 75 35 346 55 306 16 183 214 240 192 163 140 188 181 29 117 212 135 219 246 276 37 359 183 142 153 169 168 171 170 170 165 174 171 173 175 179 180 190 187 187 190 194 197 182 178 170 172 164 154 149 164 144 141 136 125 121 128 145 140 139 135 128 162 159 145 140 142 126 129 107 116 80 59 70 71 65 61 72 76 65 65 68 66 68 68 70 80 227 172 128
9 125 233 249 139 75 223 59 67 291 20 345 338 198 251 276 172 162 212 186 193 193 210 205 210 196 144 166 141 166 154 157 173 183 180 183 185 176 182 172 180 171 177 181 186 191 188 182 187 192 192 185 180 182 179 169 172 170 161 157 147 153 140 158 159 152 168 159 165 168 165 139 136 132 83 48 66 61 74 58 77 78 77 72 76 76 76 71 76 83 70 66 61 266 240 50 42
64 280 213 161 80 108 172 182 81 255 314 336 343 143 217 249 235 108 240 191 188 222 203 201 222 203 180 133 151 165 168 167 176 188 192 192 194 191 194 185 182 184 176 180 177 186 188 187 182 188 190 190 196 186 188 191 188 178 174 169 170 169 168 167 160 167 167 168 171 181 157 130 145 130 104 118 156 154 112 96 85 99 103 86 89 124 120 73 104 115 101 196 198 264 32 14 18
90 249 246 121 151 174 164 191 223 195 226 322 346 110 223 207 206 197 207 221 222 234 229 211 208 200 163 155 164 170 172 173 179 190 198 200 200 201 205 195 192 180 174 166 174 184 189 188 184 186 189 194 206 189 196 197 194 191 186 183 181 179 173 172 170 174 169 169 176 178 140 135 162 158 168 162 174 127 131 143 153 139 108 104 10 89 178 140 225 128 174 217 38 11 4 16 1
140 271 37 89 143 224 121 178 111 216 239 254 157 250 328 82 170 214 213 227 235 224 226 221 240 188 157 163 170 174 177 178 185 191 198 202 202 201 202 202 187 171 155 179 186 182 187 188 187 189 189 196 206 204 205 191 195 203 194 192 192 190 178 181 180 181 177 179 183 168 155 154 170 171 172 178 175 167 171 153 143 145 136 100 16 77 126 301 278 230 222 282 289 333 355 355 356
224 147 209 270 173 321 118 168 171 222 229 232 228 153 41 217 231 211 224 234 326 28 9 318 219 143 146 144 161 178 182 188 190 194 196 202 206 207 204 202 192 187 178 193 181 188 182 186 189 190 194 196 205 208 208 209 212 210 207 200 199 197 192 189 190 190 187 178 179 174 185 181 178 172 171 181 176 184 179 194 178 183 173 140 157 264 137 223 262 266 285 289 314 298 303 317 324
226 203 123 192 181 286 69 257 134 220 242 294 31 99 244 205 248 129 228 233 181 53 8 322 262 136 139 153 173 183 188 191 195 198 197 200 203 206 204 201 200 190 186 185 185 184 185 187 186 191 195 196 200 205 209 212 211 210 210 199 209 194 199 200 196 196 178 183 188 192 204 192 189 185 177 180 169 185 174 198 217 199 196 210 200 262 242 203 216 237 276 306 278 271 290 296 306
188 221 173 149 248 256 289 291 254 219 236 337 248 239 245 229 274 59 246 239 223 114 93 112 145 152 164 168 176 187 193 199 202 202 203 207 207 209 214 214 211 205 196 188 181 188 186 187 188 194 195 198 197 200 208 210 210 212 206 209 208 189 205 206 204 198 196 197 192 198 206 203 196 192 185 182 180 189 165 186 200 205 210 210 211 213 233 218 203 227 233 251 270 292 297 283 311
208 206 126 136 255 304 331 277 245 204 149 188 212 247 243 231 356 256 249 223 211 143 130 127 149 160 177 185 182 184 191 197 200 201 203 203 204 205 211 214 211 212 211 197 185 191 185 188 193 195 196 197 198 201 205 207 208 211 209 205 202 194 207 206 202 207 214 202 199 202 206 215 201 199 189 186 195 189 186 180 200 205 212 201 223 223 200 233 224 214 239 250 265 286 296 316 306
116 168 233 256 282 305 90 272 1 140 223 179 259 277 187 136 211 263 101 137 94 167 150 155 168 183 186 189 187 194 195 197 199 201 203 205 206 208 209 212 214 213 211 213 205 191 184 190 197 197 198 197 200 205 205 207 204 210 209 207 201 203 204 202 205 209 211 213 213 205 211 221 216 212 204 200 207 202 197 200 204 195 211 202 213 236 208 240 248 260 278 294 303 312 311 318 306
106 74 162 231 252 249 232 271 237 250 234 186 245 277 153 163 183 247 93 101 186 177 152 171 198 190 193 193 190 196 203 202 197 201 207 206 208 208 210 210 214 215 213 212 212 209 200 199 199 199 202 196 205 209 206 210 204 207 207 208 206 205 202 205 203 204 203 208 210 208 215 211 222 218 221 216 224 211 210 209 207 209 215 202 205 226 225 226 257 271 264 282 292 289 297 299 293
81 256 248 204 258 266 174 244 218 186 252 165 192 272 236 180 231 229 122 140 166 184 174 177 203 209 194 193 194 198 205 197 194 204 212 212 212 208 211 210 210 214 218 214 212 207 208 206 205 200 202 201 208 210 207 207 201 202 204 207 206 200 205 211 212 206 201 198 196 204 211 213 213 220 213 220 220 224 217 213 218 219 224 220 216 217 242 247 243 242 239 228 252 257 266 286 268
155 95 311 295 266 262 153 88 98 229 237 168 168 264 240 206 222 168 160 159 158 175 191 187 192 203 206 198 200 205 203 199 203 209 210 211 212 213 216 212 212 215 216 215 213 211 206 202 201 206 205 209 211 213 214 206 204 201 202 202 201 197 201 206 215 215 204 201 194 195 203 207 210 213 215 207 218 221 216 221 226 226 221 218 225 210 222 231 246 244 254 235 246 271 285 287 297
190 113 210 268 280 243 83 342 129 229 89 191 179 255 258 230 230 176 132 170 186 211 206 190 192 194 202 204 204 208 210 209 211 210 212 214 213 214 217 215 212 214 216 219 217 215 208 207 199 203 203 213 209 216 218 218 208 204 202 205 202 202 199 204 207 210 208 205 199 194 200 203 207 212 207 210 210 222 217 218 226 234 230 217 223 209 249 260 260 265 264 272 284 285 284 286 281
125 166 204 168 230 209 278 176 207 233 127 189 199 257 259 272 277 89 67 206 212 233 217 198 192 200 201 204 209 210 214 213 218 218 218 217 215 216 215 214 212 213 216 217 220 219 217 214 205 209 201 208 212 214 218 220 216 211 210 211 213 206 208 208 207 205 208 205 198 201 196 203 207 207 203 210 216 215 220 221 231 245 216 225 236 241 246 252 257 263 263 266 280 280 281 282 287
221 247 184 181 200 235 301 114 351 42 116 165 214 262 19 272 43 42 78 206 215 232 231 199 208 210 208 213 209 212 213 214 216 219 220 216 216 217 215 214 213 214 215 216 217 217 221 218 210 216 215 207 211 214 218 221 223 219 215 213 217 213 216 213 212 208 206 202 202 205 196 200 204 204 205 203 218 214 220 228 240 217 216 242 247 244 242 265 281 275 276 263 265 280 287 291 284
196 207 227 171 212 166 208 93 174 69 226 199 213 250 247 277 269 73 94 197 207 234 239 229 218 216 206 210 213 212 218 217 215 215 218 213 214 213 216 218 219 216 218 218 218 218 220 221 221 219 222 218 212 212 214 219 222 224 225 223 215 218 218 223 221 213 212 210 208 208 198 199 202 203 203 200 210 216 217 220 230 225 216 226 235 237 249 264 265 272 282 273 265 265 276 289 297
184 169 191 193 214 212 222 207 123 270 137 241 218 239 259 266 279 263 156 167 214 242 248 246 232 220 212 214 215 220 222 222 223 217 216 212 212 210 215 219 221 222 222 221 221 220 221 222 224 217 217 224 222 217 213 216 222 225 226 224 220 218 219 223 226 227 227 225 219 211 201 203 202 203 200 196 205 205 214 219 226 222 221 239 243 250 251 249 254 258 269 277 252 270 299 303 303
178 179 186 169 195 194 217 211 91 277 219 222 226 244 254 257 260 265 204 178 220 252 258 256 244 236 230 221 220 220 225 234 232 219 209 204 205 207 212 218 223 222 221 222 222 221 222 223 223 226 223 224 224 221 214 213 214 218 221 222 223 215 212 212 217 223 221 227 227 219 209 209 206 203 198 197 204 205 208 213 221 228 226 234 241 243 240 241 239 239 248 264 268 262 268 278 283
162 166 168 200 207 200 138 168 123 239 267 246 244 242 253 260 259 264 255 133 225 251 252 246 234 228 223 223 223 223 224 235 223 199 196 201 206 209 211 214 219 221 223 222 221 220 219 219 217 222 219 218 218 216 214 213 215 219 222 219 219 213 207 206 208 213 219 221 223 226 217 212 210 205 203 197 205 209 215 216 214 225 219 219 230 241 246 249 248 256 262 258 262 265 261 257 262
177 173 188 181 204 229 168 133 110 217 244 257 136 260 258 261 259 263 248 207 255 242 241 244 245 232 229 231 234 225 231 247 234 218 205 204 205 205 204 208 213 216 217 218 220 219 219 218 218 219 219 218 217 214 212 212 213 214 213 218 219 216 205 202 210 210 215 217 219 225 224 210 208 207 201 201 208 209 210 210 211 221 228 225 225 234 235 231 223 210 206 244 236 243 253 237 244
184 201 181 178 206 290 54 130 147 157 196 270 196 267 262 263 265 257 258 249 251 250 240 247 251 241 230 225 233 235 228 243 240 232 210 207 205 203 202 207 208 213 213 213 217 217 218 221 221 221 219 216 216 215 214 213 213 214 212 216 214 222 221 216 211 209 212 217 216 221 226 216 204 209 209 206 209 213 217 215 217 217 218 218 221 222 217 230 229 235 235 245 236 218 255 229 230
184 186 183 208 128 168 213 146 123 157 261 308 327 292 274 265 263 252 255 251 248 242 239 245 239 248 245 233 223 221 229 236 240 224 212 207 202 201 203 207 209 207 213 214 210 214 215 220 219 218 219 217 218 217 211 217 215 215 218 225 225 222 222 219 220 226 228 227 228 226 226 227 218 211 218 220 209 219 214 214 217 218 216 202 219 230 229 229 239 241 228 234 242 242 211 211 204
198 203 205 193 155 204 269 98 313 163 140 279 280 274 270 239 248 253 220 227 246 244 239 247 241 240 254 309 288 234 235 226 237 236 213 198 199 205 205 208 202 204 208 210 208 208 211 214 215 215 216 214 212 213 212 215 215 215 220 223 228 226 223 220 223 226 228 227 226 223 225 220 224 226 215 205 202 212 209 211 213 222 225 218 220 235 242 242 241 236 233 233 221 229 234 185 158
194 225 217 214 182 176 136 75 289 244 218 74 358 286 267 225 217 236 240 179 236 220 224 237 238 226 220 237 242 237 233 241 242 244 229 203 209 213 212 208 204 209 210 212 207 208 210 214 213 212 212 213 212 209 208 211 215 214 214 216 216 217 222 211 214 221 219 216 213 208 201 210 220 225 228 227 216 204 202 201 202 217 226 232 237 241 242 241 238 231 227 220 213 212 219 175 149
187 208 203 214 195 180 151 124 186 243 249 125 333 250 279 57 264 238 216 250 260 262 228 248 251 240 216 222 232 228 225 233 233 249 247 228 219 212 212 209 211 212 218 211 209 214 212 213 210 209 212 215 213 211 204 209 217 216 218 218 214 212 216 218 213 220 221 216 202 205 204 206 222 225 223 221 222 219 211 202 211 227 231 236 230 229 228 228 228 222 217 212 208 199 205 208 178
213 102 172 162 169 183 188 167 220 282 355 292 140 258 281 287 259 231 202 231 259 264 257 242 249 248 240 226 229 230 230 228 224 230 235 229 225 211 217 212 207 214 213 202 210 209 209 212 211 213 216 217 214 208 204 214 218 219 219 217 218 224 221 223 216 221 221 218 212 206 211 216 214 222 223 215 212 214 218 224 225 224 227 231 228 221 222 221 221 210 203 203 200 190 193 215 195
190 138 154 179 184 189 144 206 188 10 3 273 157 118 279 260 271 121 151 251 242 252 255 241 233 241 240 237 233 231 235 238 232 236 236 229 221 223 225 219 216 217 208 206 211 211 213 216 217 218 218 216 215 211 215 215 220 223 221 222 224 225 227 227 225 223 222 212 213 211 214 216 209 210 217 215 206 211 210 222 225 224 222 224 214 222 219 209 206 191 182 185 183 180 190 207 187
38 96 83 83 78 70 157 169 134 25 249 256 202 164 256 275 269 242 163 224 233 233 240 240 225 224 219 229 233 231 234 237 242 252 260 256 245 236 230 240 231 220 210 214 218 210 209 210 213 214 218 215 212 205 209 216 219 219 222 223 226 226 221 226 226 226 220 209 214 210 212 213 207 205 207 211 204 216 213 210 225 224 221 219 196 203 188 180 184 181 178 189 179 163 165 185 189
119 136 119 110 95 107 71 62 104 90 248 249 203 176 234 290 253 246 194 228 222 234 246 258 250 250 243 229 232 232 235 251 246 250 257 264 282 283 270 244 243 234 204 215 220 216 212 211 214 214 218 216 212 208 209 217 217 216 222 224 225 227 224 223 221 220 210 205 211 213 207 208 201 203 202 203 203 200 206 209 210 222 216 200 184 176 182 183 179 176 171 173 173 159 161 166 167
144 139 135 122 92 130 159 47 66 227 254 129 150 193 200 234 194 291 257 15 285 239 236 235 232 229 228 224 219 204 216 237 251 257 263 258 261 245 235 249 245 237 213 216 219 214 213 213 212 216 217 213 209 204 209 217 215 216 221 223 224 225 225 222 218 217 211 207 206 209 204 196 196 195 195 199 208 206 208 219 211 206 194 178 181 173 176 175 171 170 164 167 164 156 151 160 167
167 146 154 155 143 137 209 153 222 223 242 105 71 107 264 237 253 310 285 267 261 242 248 251 248 243 244 251 219 228 242 237 237 245 247 240 242 241 231 245 243 230 224 220 219 217 218 219 215 216 219 210 207 202 212 217 216 216 217 220 223 222 223 222 221 220 218 215 210 209 194 200 195 197 198 200 209 204 192 205 200 188 173 183 178 178 167 158 165 172 169 160 159 160 159 169 185
173 164 166 155 156 175 224 199 250 272 144 200 83 94 263 310 292 223 250 247 234 238 232 245 259 263 272 285 294 273 248 249 249 241 244 242 235 248 251 257 254 248 235 228 223 219 221 223 224 224 228 215 208 206 215 219 218 218 218 219 220 219 222 222 223 223 220 217 212 212 199 199 198 198 199 205 198 199 189 194 192 189 181 179 183 178 171 171 174 177 168 161 157 162 166 175 137
190 177 185 201 181 183 202 182 195 205 185 127 235 125 252 119 80 1 319 323 323 298 271 261 262 270 282 290 286 273 267 253 244 267 271 274 272 263 261 252 253 251 245 234 224 221 224 227 224 228 229 222 210 213 219 222 221 220 220 220 221 220 223 222 225 222 219 213 210 212 208 205 204 203 204 205 194 188 181 180 185 176 171 172 172 167 158 157 165 149 150 157 160 163 167 130 135
183 186 32 237 225 6 232 33 215 157 165 175 179 221 342 249 345 282 243 263 267 245 255 237 266 253 243 260 255 259 265 277 192 239 251 249 248 262 259 251 244 246 245 234 220 205 207 218 219 224 225 226 222 221 224 224 224 223 223 223 223 223 222 222 223 210 217 217 214 210 205 204 207 206 205 184 184 177 171 175 173 173 170 171 172 166 161 152 150 140 145 154 148 148 150 143 142
172 120 207 197 9 111 103 97 40 47 1 248 149 264 247 275 274 260 263 195 248 240 241 240 252 243 235 259 259 243 252 268 271 248 247 256 247 238 242 253 251 241 241 234 227 211 205 201 205 211 214 217 219 223 227 226 227 226 226 226 226 224 220 216 220 219 214 213 211 211 209 205 205 199 186 183 172 179 169 169 172 175 174 170 154 155 159 161 161 139 148 156 154 155 148 143 147
123 214 192 102 54 6 227 208 108 213 230 244 134 242 263 249 286 82 256 251 263 256 237 220 238 235 239 239 250 243 231 249 272 269 259 252 249 247 239 249 273 285 271 257 245 255 254 226 208 208 206 209 213 221 225 225 225 227 227 225 226 224 221 219 218 219 215 208 206 205 206 193 195 191 179 175 178 172 167 164 171 170 168 164 149 153 155 156 162 167 162 150 148 153 156 157 165
205 195 133 172 192 211 198 174 194 188 227 267 211 240 257 229 226 209 187 219 239 232 241 207 221 209 234 260 262 260 280 289 273 269 261 248 227 217 212 218 217 254 257 261 261 227 227 236 254 243 224 215 215 220 223 226 227 227 227 226 224 221 219 220 218 220 217 209 200 199 198 195 183 173 168 171 172 171 163 165 165 163 158 148 147 150 150 152 159 162 164 159 156 153 148 151 151
29 48 195 356 354 227 163 210 352 169 228 179 251 116 257 176 219 205 235 226 242 238 225 235 228 217 221 239 256 255 253 262 271 281 280 270 245 207 188 182 183 196 210 220 222 219 215 212 210 221 241 242 222 222 224 228 229 232 231 227 222 219 214 212 210 211 210 207 197 197 197 192 187 174 179 176 172 174 168 160 158 156 142 138 143 154 157 150 163 166 144 145 152 151 145 144 145
179 192 192 186 221 348 333 2 206 207 216 211 277 264 231 183 196 197 219 235 241 239 249 257 272 99 207 248 270 281 278 270 265 275 281 281 260 219 190 187 178 186 202 205 208 220 221 212 219 223 227 223 229 239 236 238 236 236 233 227 220 213 211 209 210 210 210 206 206 198 197 193 171 184 173 176 174 172 174 166 160 152 145 148 158 162 156 151 160 154 149 140 151 154 141 135 135
185 188 195 191 172 167 178 214 103 222 207 220 198 253 179 168 129 200 223 232 242 237 236 250 278 110 249 256 255 267 279 268 266 273 270 267 258 235 213 170 191 204 201 198 195 208 214 214 217 216 224 237 241 234 229 229 229 232 232 231 226 215 212 209 208 207 210 206 203 198 191 172 182 182 175 176 170 162 159 160 152 155 156 157 162 155 144 150 155 146 139 143 152 148 138 133 137